Powrót do katalogu

STARLINK-31358

AktywnyŁącznośćVLEO
NORAD 58977·PAYLOAD·🇺🇸 United States

Wystrzelony Feb 15, 2024 z Vandenberg Space Force Base

Loading…

Następne Przeloty (najbliższe 24 godziny)

TLE

ŚwieżeSource: CelesTrak SupGP

Epoka: Sep 14, 2026, 21:11 UTC

1 58977C 24031N   26257.88312500 -.00044694  00000+0 -13197-2 0  2573
2 58977  53.1567 136.2555 0001277  90.6742 236.8624 15.34430619    15

Śledź STARLINK-31358 w czasie rzeczywistym z AllMySat

Download on the App Store